User: anonymous   Login
Location: Houston
(29.7630°N, 95.3630°W)
Time: 06:26:24
(UTC-06:00)
Language:

Saudisat 1A - Orbit

View from above orbital plane
View from above orbital plane
View from above satellite
View from above satellite

Ground track
Ground track

The orbit data is extracted from the following two-line orbital elements,

1 26546U 00057B   16341.52177505  .00000135  00000-0  29959-4 0  9999
2 26546  64.5541 218.2788 0043638 247.6469 112.0013 14.90406471877947
Epoch (UTC): 06 December 2016 12:31:21
Eccentricity: 0.0043638
inclination: 64.5541°
perigee height: 566 km
apogee height: 627 km
right ascension of ascending node: 218.2788°
argument of perigee: 247.6469°
revolutions per day: 14.90406471
mean anomaly at epoch: 112.0013°
orbit number at epoch: 87794

The dashed part of the orbit path shows where the satellite is in the earth's shadow,  

DLR